W7KKE-3 Weather Reports


Display with metric or nautical units.
time (UTC)temp
F
wind
direction
speed
MPH
gust
MPH
rain 1hr
in
rain 24hr
in
rain mn
in
humidity
%
barometer
mb
20260902120325 61 193 6.0 10.0 0.00 0.04 0.00 82 1003.4
20260902115826 61 208 4.0 18.0 0.00 0.04 0.00 82 1003.5
20260902115325 61 163 4.0 18.0 0.00 0.04 0.00 82 1003.5
20260902114825 61 166 3.0 18.0 0.00 0.04 0.00 82 1003.6
20260902114326 61 149 7.0 8.0 0.00 0.04 0.00 82 1003.7
20260902113825 61 207 4.0 11.0 0.00 0.04 0.00 82 1003.9
20260902113325 61 113 3.0 11.0 0.00 0.04 0.00 82 1004.0
20260902112826 61 161 4.0 11.0 0.00 0.04 0.00 82 1004.1
20260902112325 61 159 5.0 14.0 0.00 0.04 0.00 83 1004.0
20260902111825 61 144 6.0 14.0 0.00 0.04 0.00 83 1004.1
20260902111326 61 190 4.0 14.0 0.00 0.04 0.00 83 1004.2
20260902110827 61 184 4.0 12.0 0.00 0.04 0.00 83 1004.3
20260902110325 61 149 5.0 10.0 0.00 0.04 0.00 83 1004.4
20260902105826 61 190 6.0 10.0 0.00 0.04 0.00 84 1004.5
20260902105325 61 201 4.0 11.0 0.00 0.04 0.00 84 1004.6
20260902104825 61 84 4.0 11.0 0.00 0.04 0.00 84 1004.6
20260902104326 61 100 3.0 11.0 0.00 0.04 0.00 84 1004.6
20260902103825 61 170 4.0 8.0 0.00 0.04 0.00 84 1004.7
20260902103325 61 98 3.0 13.0 0.00 0.04 0.00 84 1004.8
20260902102826 61 183 1.0 13.0 0.00 0.04 0.00 84 1004.9
20260902102325 61 173 5.0 13.0 0.00 0.04 0.00 84 1004.9
20260902101825 61 200 6.0 17.0 0.00 0.04 0.00 84 1005.0
20260902101326 61 212 6.0 17.0 0.00 0.04 0.00 84 1005.2
20260902100825 61 135 4.0 17.0 0.00 0.04 0.00 85 1005.3
20260902100325 61 109 6.0 9.0 0.00 0.04 0.00 85 1005.3
20260902095826 61 189 4.0 9.0 0.00 0.04 0.00 85 1005.3
20260902095325 61 208 2.0 13.0 0.00 0.04 0.00 85 1005.4
20260902094825 61 135 6.0 13.0 0.00 0.04 0.00 85 1005.5
20260902094326 61 200 5.0 13.0 0.00 0.04 0.00 85 1005.5
20260902093825 61 189 5.0 11.0 0.00 0.04 0.00 85 1005.6
20260902093325 61 194 5.0 11.0 0.00 0.04 0.00 85 1005.6
20260902092826 61 212 3.0 11.0 0.00 0.04 0.00 85 1005.7
20260902092325 61 131 4.0 16.0 0.00 0.04 0.00 85 1005.8
20260902091825 61 141 3.0 16.0 0.00 0.04 0.00 85 1005.8
20260902091326 61 191 7.0 16.0 0.00 0.04 0.00 85 1005.8
20260902090825 61 205 8.0 14.0 0.00 0.04 0.00 85 1005.8
20260902090325 61 149 6.0 14.0 0.00 0.04 0.00 85 1005.9
20260902085857 61 201 3.0 20.0 0.00 0.04 0.00 85 1005.9
20260902085826 61 201 3.0 20.0 0.00 0.04 0.00 85 1005.9
20260902085325 61 214 1.0 20.0 0.00 0.04 0.00 85 1006.0
20260902084825 61 158 7.0 20.0 0.00 0.04 0.00 85 1006.1
20260902084326 61 186 10.0 15.0 0.00 0.04 0.00 85 1006.2
20260902083825 61 208 8.0 9.0 0.00 0.04 0.00 85 1006.2
20260902083325 61 218 0.0 9.0 0.00 0.04 0.00 85 1006.2
20260902082826 61 193 3.0 14.0 0.00 0.04 0.00 85 1006.2
20260902082325 61 151 2.0 14.0 0.00 0.04 0.00 85 1006.3
20260902081825 61 177 7.0 14.0 0.00 0.04 0.00 85 1006.3
20260902081326 61 203 4.0 13.0 0.00 0.04 0.00 85 1006.3
20260902080825 61 183 5.0 13.0 0.00 0.04 0.00 85 1006.3
20260902080325 61 236 6.0 9.0 0.00 0.04 0.00 85 1006.3
20260902075826 61 201 4.0 15.0 0.00 0.04 0.00 85 1006.4
20260902075325 61 193 5.0 15.0 0.00 0.04 0.00 85 1006.5
20260902074825 61 127 5.0 15.0 0.00 0.04 0.00 85 1006.5
20260902074326 61 218 4.0 12.0 0.00 0.04 0.00 85 1006.6
20260902073825 61 155 4.0 14.0 0.00 0.04 0.00 85 1006.6
20260902073325 61 109 7.0 14.0 0.00 0.04 0.00 85 1006.7
20260902072858 61 184 2.0 14.0 0.00 0.04 0.00 85 1006.7
20260902072826 61 184 2.0 14.0 0.00 0.04 0.00 85 1006.7
20260902072325 61 197 9.0 13.0 0.00 0.04 0.00 85 1006.8
20260902071825 61 163 8.0 13.0 0.00 0.04 0.00 85 1006.8
20260902071326 61 144 3.0 13.0 0.00 0.04 0.00 85 1006.9
20260902070825 61 149 3.0 12.0 0.00 0.04 0.00 85 1006.9
20260902070325 61 210 1.0 10.0 0.00 0.04 0.00 85 1007.0
20260902065826 61 193 3.0 10.0 0.00 0.04 0.00 85 1007.0
20260902065325 61 201 2.0 10.0 0.00 0.04 0.04 86 1007.0
20260902064825 61 179 5.0 15.0 0.00 0.04 0.04 86 1007.1
20260902064326 61 184 6.0 15.0 0.00 0.04 0.04 86 1007.1
20260902063825 61 134 4.0 15.0 0.00 0.04 0.04 86 1007.1
20260902063325 60 182 7.0 9.0 0.00 0.04 0.04 86 1007.1
20260902062826 61 200 3.0 8.0 0.00 0.04 0.04 86 1007.1
20260902062325 61 207 4.0 8.0 0.00 0.04 0.04 86 1007.0
20260902061825 61 180 3.0 13.0 0.00 0.04 0.04 86 1007.1
20260902061326 61 158 1.0 13.0 0.00 0.04 0.04 86 1007.2
20260902060825 61 60 3.0 13.0 0.00 0.04 0.04 86 1007.2
20260902060325 61 175 3.0 12.0 0.00 0.04 0.04 86 1007.3
20260902055325 61 179 4.0 17.0 0.00 0.04 0.04 86 1007.3
20260902054825 61 180 2.0 17.0 0.00 0.04 0.04 86 1007.4
20260902054326 61 193 3.0 10.0 0.00 0.04 0.04 87 1007.4
20260902053825 61 144 4.0 9.0 0.00 0.04 0.04 87 1007.4
20260902053325 61 133 5.0 9.0 0.00 0.04 0.04 87 1007.5
20260902052826 61 187 4.0 17.0 0.00 0.04 0.04 87 1007.5
20260902052325 61 186 5.0 17.0 0.00 0.04 0.04 87 1007.5
20260902051825 61 46 0.0 17.0 0.00 0.04 0.04 87 1007.6
20260902051326 61 127 5.0 13.0 0.00 0.04 0.04 87 1007.6
20260902050825 61 190 7.0 18.0 0.00 0.04 0.04 87 1007.6
20260902050325 62 156 4.0 18.0 0.00 0.04 0.04 87 1007.5
20260902045826 62 200 8.0 18.0 0.00 0.04 0.04 87 1007.6
20260902044825 61 180 4.0 14.0 0.00 0.04 0.04 87 1007.7
20260902044326 61 172 6.0 14.0 0.00 0.04 0.04 87 1007.8
20260902043826 61 207 5.0 14.0 0.00 0.04 0.04 87 1007.7
20260902043325 61 179 4.0 14.0 0.00 0.04 0.04 87 1007.7
20260902042826 61 205 4.0 13.0 0.00 0.04 0.04 87 1007.7
20260902042325 61 162 5.0 13.0 0.00 0.04 0.04 87 1007.8
20260902041825 61 165 7.0 13.0 0.00 0.04 0.04 87 1007.9
20260902041326 61 175 8.0 16.0 0.00 0.04 0.04 87 1007.9
20260902040825 61 163 7.0 16.0 0.00 0.04 0.04 87 1007.9
20260902040325 61 156 4.0 16.0 0.00 0.04 0.04 87 1007.8
20260902035826 61 208 10.0 16.0 0.00 0.04 0.04 87 1007.8
20260902034825 61 163 4.0 16.0 0.00 0.04 0.04 87 1007.8
20260902034326 61 194 7.0 19.0 0.00 0.04 0.04 87 1007.8
20260902033825 61 194 7.0 19.0 0.00 0.04 0.04 87 1007.9
20260902033325 61 176 9.0 19.0 0.00 0.04 0.04 87 1007.9
20260902032826 61 180 5.0 16.0 0.00 0.04 0.04 87 1007.9
20260902031825 61 203 6.0 11.0 0.00 0.04 0.04 87 1008.0
20260902031326 61 196 4.0 9.0 0.00 0.04 0.04 87 1007.9
20260902030825 61 193 3.0 9.0 0.00 0.04 0.04 87 1007.9
20260902030325 61 190 4.0 9.0 0.00 0.04 0.04 87 1007.8
20260902025826 61 187 3.0 8.0 0.00 0.04 0.04 87 1007.8
20260902025325 61 165 5.0 5.0 0.00 0.04 0.04 87 1007.7
20260902024825 61 210 0.0 10.0 0.00 0.04 0.04 87 1007.8
20260902024326 61 198 4.0 10.0 0.00 0.04 0.04 87 1007.8
20260902023825 61 183 5.0 10.0 0.00 0.04 0.04 87 1007.8
20260902023325 61 214 7.0 8.0 0.00 0.04 0.04 86 1007.8
20260902022825 61 205 2.0 6.0 0.00 0.04 0.04 87 1007.8
20260902022325 61 186 4.0 12.0 0.00 0.04 0.04 86 1007.8
20260902021825 61 228 5.0 12.0 0.00 0.04 0.04 86 1007.8
20260902021326 61 177 5.0 12.0 0.00 0.04 0.04 86 1007.8
20260902020825 61 186 7.0 14.0 0.00 0.04 0.04 86 1007.9
20260902020325 61 184 7.0 14.0 0.00 0.04 0.04 86 1008.0
20260902015826 62 173 7.0 14.0 0.00 0.04 0.04 86 1007.9
20260902015325 62 200 7.0 12.0 0.00 0.04 0.04 86 1007.8
20260902014825 62 162 7.0 12.0 0.00 0.04 0.04 86 1007.7
20260902014326 62 156 8.0 13.0 0.00 0.04 0.04 86 1007.7
20260902013825 62 204 6.0 13.0 0.00 0.04 0.04 87 1007.7
20260902013325 62 190 4.0 13.0 0.00 0.04 0.04 86 1007.8
20260902012825 62 154 8.0 11.0 0.00 0.04 0.04 87 1007.8
20260902012325 62 193 6.0 10.0 0.00 0.04 0.04 87 1007.7
20260902011825 62 246 6.0 16.0 0.00 0.04 0.04 87 1007.7
20260902011326 61 201 4.0 16.0 0.00 0.04 0.04 87 1007.7
20260902010825 61 196 8.0 16.0 0.00 0.04 0.04 86 1007.8
20260902010325 62 196 10.0 15.0 0.00 0.04 0.04 86 1007.8
20260902005825 62 201 6.0 15.0 0.00 0.04 0.04 86 1007.8
20260902005325 62 205 4.0 15.0 0.00 0.04 0.04 86 1007.8
20260902004825 62 184 9.0 14.0 0.00 0.04 0.04 86 1007.8
20260902004326 62 187 8.0 16.0 0.00 0.04 0.04 86 1007.9
20260902003825 62 187 7.0 16.0 0.00 0.04 0.04 86 1007.9
20260902003325 62 184 9.0 16.0 0.00 0.04 0.04 86 1008.0
20260902002825 62 194 8.0 15.0 0.00 0.04 0.04 85 1008.1
20260902002325 62 200 8.0 15.0 0.00 0.04 0.04 86 1008.1
20260902001825 62 184 6.0 18.0 0.00 0.04 0.04 86 1008.2
20260902001328 62 211 6.0 18.0 0.00 0.04 0.04 86 1008.1
20260902000825 62 182 5.0 18.0 0.00 0.04 0.04 85 1008.1
20260902000325 62 210 6.0 14.0 0.00 0.04 0.04 85 1008.2
20260901235826 62 177 10.0 19.0 0.00 0.04 0.04 85 1008.1
20260901235325 62 191 7.0 19.0 0.00 0.04 0.04 85 1008.2
20260901234825 62 186 12.0 19.0 0.00 0.04 0.04 85 1008.3
20260901234326 63 189 10.0 18.0 0.00 0.04 0.04 85 1008.2
20260901233825 63 196 8.0 15.0 0.00 0.04 0.04 85 1008.2
20260901233325 63 207 8.0 21.0 0.00 0.04 0.04 85 1008.2
20260901232825 62 193 9.0 21.0 0.00 0.04 0.04 85 1008.2
20260901232325 62 182 12.0 21.0 0.00 0.04 0.04 85 1008.2
20260901231825 63 198 11.0 20.0 0.00 0.04 0.04 85 1008.3
20260901231326 62 175 8.0 20.0 0.00 0.04 0.04 85 1008.2
20260901225825 63 172 8.0 16.0 0.00 0.04 0.04 83 1008.3
20260901225325 64 190 6.0 16.0 0.00 0.04 0.04 83 1008.3
20260901224825 64 158 7.0 16.0 0.00 0.04 0.04 84 1008.2
20260901224326 64 252 7.0 15.0 0.00 0.04 0.04 84 1008.2
20260901223825 64 201 7.0 14.0 0.00 0.04 0.04 84 1008.3
20260901223325 63 180 8.0 13.0 0.00 0.04 0.04 84 1008.2
20260901222825 63 190 8.0 11.0 0.00 0.04 0.04 84 1008.3
20260901222325 64 226 5.0 11.0 0.00 0.04 0.04 84 1008.4
20260901221825 64 221 5.0 10.0 0.00 0.04 0.04 84 1008.4
20260901221326 64 246 4.0 10.0 0.00 0.04 0.04 84 1008.4
20260901220826 64 229 5.0 8.0 0.00 0.04 0.04 84 1008.4
20260901220325 65 257 4.0 8.0 0.00 0.04 0.04 84 1008.4
20260901215325 64 190 5.0 12.0 0.00 0.04 0.04 85 1008.4
20260901214825 63 200 6.0 12.0 0.00 0.04 0.04 85 1008.3
20260901214326 63 154 8.0 12.0 0.00 0.04 0.04 85 1008.3
20260901213825 63 180 4.0 15.0 0.00 0.04 0.04 85 1008.3
20260901213325 63 189 7.0 15.0 0.00 0.04 0.04 84 1008.2
20260901212825 63 247 8.0 15.0 0.00 0.04 0.04 84 1008.2
20260901212325 63 232 9.0 15.0 0.00 0.04 0.04 84 1008.2
20260901211825 63 239 7.0 16.0 0.00 0.04 0.04 85 1008.2
20260901211326 63 190 5.0 16.0 0.00 0.04 0.04 85 1008.2
20260901210825 63 193 5.0 16.0 0.00 0.04 0.04 85 1008.2
20260901210325 63 207 9.0 12.0 0.00 0.04 0.04 85 1008.2
20260901205825 63 168 8.0 13.0 0.00 0.04 0.04 85 1008.2
20260901205325 62 225 7.0 13.0 0.00 0.04 0.04 86 1008.2
20260901204825 62 184 3.0 13.0 0.00 0.04 0.04 86 1008.1
20260901204326 62 239 6.0 13.0 0.00 0.04 0.04 85 1008.1
20260901203826 62 247 7.0 13.0 0.00 0.04 0.04 86 1008.2
20260901203326 62 187 7.0 12.0 0.00 0.04 0.04 85 1008.1
20260901202825 62 214 3.0 12.0 0.00 0.04 0.04 86 1008.2
20260901202325 62 170 6.0 12.0 0.00 0.04 0.04 86 1008.3
20260901201825 62 187 4.0 11.0 0.00 0.04 0.04 86 1008.3
20260901201326 62 197 5.0 11.0 0.00 0.04 0.04 85 1008.4
20260901200825 62 274 4.0 9.0 0.00 0.04 0.04 86 1008.4
20260901200325 62 211 4.0 9.0 0.00 0.04 0.04 86 1008.3
20260901195825 62 194 3.0 13.0 0.00 0.04 0.04 85 1008.3
20260901195325 63 211 5.0 13.0 0.00 0.04 0.04 85 1008.3
20260901194826 63 196 4.0 13.0 0.00 0.04 0.04 85 1008.3
20260901194326 63 183 4.0 10.0 0.00 0.04 0.04 85 1008.3
20260901193825 63 203 4.0 12.0 0.00 0.04 0.04 86 1008.4
20260901193325 63 232 2.0 12.0 0.00 0.04 0.04 86 1008.3
20260901192825 63 163 3.0 12.0 0.00 0.04 0.04 86 1008.3
20260901192325 63 158 6.0 11.0 0.00 0.04 0.04 86 1008.3
20260901191825 62 208 4.0 11.0 0.00 0.04 0.04 87 1008.3
20260901191326 62 239 6.0 11.0 0.00 0.04 0.04 86 1008.3
20260901190827 62 204 3.0 17.0 0.00 0.04 0.04 87 1008.4
20260901190325 62 193 7.0 17.0 0.00 0.04 0.04 87 1008.3
20260901185825 62 204 7.0 17.0 0.00 0.04 0.04 86 1008.3
20260901185325 62 212 8.0 16.0 0.00 0.04 0.04 86 1008.4
20260901184825 62 205 8.0 14.0 0.00 0.04 0.04 87 1008.3
20260901184326 62 144 7.0 14.0 0.00 0.04 0.04 87 1008.3
20260901183825 62 180 5.0 14.0 0.00 0.04 0.04 87 1008.4
20260901183325 61 194 5.0 13.0 0.00 0.04 0.04 88 1008.3
20260901182825 61 169 6.0 13.0 0.00 0.04 0.04 87 1008.3
20260901182325 61 203 6.0 13.0 0.00 0.04 0.04 88 1008.2
20260901181825 61 194 8.0 11.0 0.00 0.04 0.04 88 1008.2
20260901181328 62 138 5.0 11.0 0.00 0.04 0.04 88 1008.2
20260901180825 62 180 5.0 11.0 0.00 0.04 0.04 88 1008.2
20260901180325 62 257 4.0 11.0 0.00 0.04 0.04 88 1008.2
20260901175826 62 190 5.0 11.0 0.00 0.04 0.04 88 1008.2
20260901175325 62 225 4.0 11.0 0.00 0.04 0.04 88 1008.3
20260901174825 62 253 3.0 10.0 0.00 0.04 0.04 88 1008.2
20260901174326 62 236 5.0 7.0 0.00 0.04 0.04 88 1008.2
20260901173825 63 249 3.0 9.0 0.00 0.04 0.04 88 1008.1
20260901173418 63 235 2.0 9.0 0.00 0.04 0.04 88 1008.0
20260901173325 63 235 2.0 9.0 0.00 0.04 0.04 88 1008.0
20260901172826 64 246 2.0 9.0 0.00 0.04 0.04 88 1008.0
20260901172325 64 190 2.0 10.0 0.00 0.04 0.04 89 1007.9
20260901171825 64 207 3.0 10.0 0.00 0.04 0.04 90 1007.8
20260901171326 63 203 2.0 10.0 0.00 0.04 0.04 90 1007.8
20260901170825 63 214 6.0 7.0 0.00 0.04 0.04 90 1007.8
20260901170325 63 191 4.0 6.0 0.00 0.04 0.04 90 1007.8
20260901165826 62 196 1.0 5.0 0.00 0.04 0.04 90 1007.8
20260901165325 62 201 1.0 5.0 0.00 0.04 0.04 90 1007.8
20260901164825 62 222 3.0 5.0 0.00 0.04 0.04 90 1007.8
20260901164326 61 194 0.0 4.0 0.00 0.04 0.04 90 1007.9
20260901163825 61 204 1.0 4.0 0.00 0.04 0.04 89 1007.9
20260901163325 61 162 1.0 3.0 0.00 0.04 0.04 90 1008.0
20260901162826 61 0 1.0 2.0 0.01 0.04 0.04 90 1007.9
20260901162325 61 156 0.0 2.0 0.01 0.04 0.04 90 1008.0
20260901161825 61 187 0.0 1.0 0.01 0.04 0.04 90 1008.0
20260901161326 61 196 0.0 0.0 0.01 0.04 0.04 90 1008.0
20260901160825 61 211 0.0 8.0 0.02 0.04 0.04 90 1008.0
20260901160325 61 196 0.0 8.0 0.02 0.04 0.04 90 1008.0
20260901155826 61 201 4.0 8.0 0.03 0.04 0.04 89 1007.9
20260901155325 61 194 3.0 3.0 0.03 0.04 0.04 89 1007.9
20260901154825 61 0 0.0 0.0 0.03 0.04 0.04 89 1008.0
20260901154326 60 0 0.0 0.0 0.03 0.04 0.04 89 1008.0
20260901153825 60 210 0.0 6.0 0.03 0.04 0.04 89 1008.0
20260901153325 60 246 0.0 6.0 0.03 0.04 0.04 89 1008.0
20260901152827 60 193 1.0 6.0 0.02 0.04 0.04 89 1007.9
20260901152325 60 229 4.0 5.0 0.02 0.03 0.03 89 1008.0
20260901151825 60 217 1.0 5.0 0.02 0.03 0.03 89 1008.0
20260901151326 60 222 2.0 5.0 0.02 0.03 0.03 89 1008.0
20260901150825 60 233 1.0 4.0 0.01 0.03 0.03 89 1008.0
20260901150325 60 249 2.0 2.0 0.01 0.02 0.02 89 1007.9
20260901145825 60 218 0.0 3.0 0.00 0.02 0.02 89 1007.9
20260901144825 60 81 0.0 3.0 0.00 0.01 0.01 89 1007.9
20260901144326 60 92 2.0 3.0 0.00 0.01 0.01 89 1007.8
20260901143825 60 93 0.0 3.0 0.00 0.01 0.01 89 1007.8
20260901143325 60 79 1.0 4.0 0.00 0.01 0.01 89 1007.8
20260901142826 60 89 1.0 4.0 0.00 0.01 0.01 89 1007.8
20260901142325 60 93 0.0 4.0 0.00 0.01 0.01 89 1007.7
20260901141825 60 92 3.0 3.0 0.01 0.01 0.01 89 1007.6
20260901141326 60 82 0.0 3.0 0.01 0.01 0.01 89 1007.6
20260901140325 60 85 1.0 3.0 0.01 0.01 0.01 89 1007.5
20260901135826 60 98 0.0 3.0 0.01 0.01 0.01 89 1007.5
20260901135325 60 131 0.0 3.0 0.01 0.01 0.01 89 1007.4
20260901134825 60 127 0.0 1.0 0.01 0.01 0.01 89 1007.4
20260901134326 60 106 1.0 1.0 0.01 0.01 0.01 89 1007.4
20260901133825 60 341 0.0 5.0 0.01 0.01 0.01 89 1007.4
20260901133325 60 57 0.0 5.0 0.01 0.01 0.01 89 1007.4
20260901132826 60 131 0.0 5.0 0.01 0.01 0.01 89 1007.3
20260901132325 60 100 2.0 4.0 0.01 0.01 0.01 88 1007.3
20260901131825 60 169 1.0 3.0 0.00 0.01 0.01 88 1007.3
20260901131326 60 208 1.0 4.0 0.00 0.01 0.01 88 1007.2
20260901130825 60 187 0.0 4.0 0.00 0.00 0.00 88 1007.2
20260901130325 60 200 0.0 4.0 0.00 0.00 0.00 88 1007.3
20260901125825 60 135 1.0 3.0 0.00 0.00 0.00 88 1007.4
20260901125325 60 163 0.0 2.0 0.00 0.00 0.00 88 1007.4
20260901124825 60 194 1.0 1.0 0.00 0.00 0.00 88 1007.3
20260901124326 60 109 0.0 1.0 0.00 0.00 0.00 88 1007.3
20260901123825 60 0 0.0 4.0 0.00 0.00 0.00 88 1007.3
20260901123325 60 257 0.0 4.0 0.00 0.00 0.00 88 1007.3
20260901122825 60 232 1.0 4.0 0.00 0.00 0.00 88 1007.2
20260901122325 60 78 0.0 1.0 0.00 0.00 0.00 88 1007.2
20260901121825 60 57 0.0 4.0 0.00 0.00 0.00 88 1007.2
20260901121326 60 155 0.0 4.0 0.00 0.00 0.00 88 1007.4
20260901120825 60 156 1.0 4.0 0.00 0.00 0.00 88 1007.4